| time (UTC) | temp F | wind direction | speed MPH | gust MPH | rain 1hr in | rain 24hr in | rain mn in | humidity % | barometer mb |
| 20260504043058 | 56 | 177 | 3.0 | 6.0 | 0.00 | 0.00 | 0.00 | 52 | 1011.3 |
| 20260504040059 | 54 | 177 | 2.0 | 6.0 | 0.00 | 0.00 | 0.00 | 52 | 1011.8 |
| 20260504033059 | 51 | 175 | 3.0 | 6.0 | 0.00 | 0.00 | 0.00 | 60 | 1011.9 |
| 20260504030059 | 52 | 183 | 1.0 | 3.0 | 0.00 | 0.00 | 0.00 | 55 | 1012.0 |
| 20260504023058 | 55 | 168 | 2.0 | 6.0 | 0.00 | 0.00 | 0.00 | 50 | 1011.9 |
| 20260504020059 | 55 | 166 | 2.0 | 8.0 | 0.00 | 0.00 | 0.00 | 49 | 1011.9 |
| 20260504013058 | 57 | 196 | 3.0 | 6.0 | 0.00 | 0.00 | 0.00 | 46 | 1011.8 |
| 20260504010058 | 54 | 194 | 2.0 | 6.0 | 0.00 | 0.00 | 0.00 | 52 | 1011.7 |
| 20260504003059 | 54 | 177 | 2.0 | 6.0 | 0.00 | 0.00 | 0.00 | 51 | 1011.6 |
| 20260504000100 | 57 | 211 | 2.0 | 9.0 | 0.00 | 0.00 | 0.00 | 46 | 1011.7 |
| 20260503233059 | 54 | 191 | 3.0 | 5.0 | 0.00 | 0.00 | 0.00 | 53 | 1011.9 |
| 20260503230059 | 53 | 169 | 2.0 | 3.0 | 0.00 | 0.00 | 0.00 | 55 | 1012.0 |
| 20260503223059 | 54 | 177 | 2.0 | 3.0 | 0.00 | 0.00 | 0.00 | 51 | 1012.0 |
| 20260503220058 | 56 | 166 | 1.0 | 3.0 | 0.00 | 0.00 | 0.00 | 49 | 1012.2 |
| 20260503213059 | 57 | 173 | 2.0 | 4.0 | 0.00 | 0.00 | 0.00 | 46 | 1012.4 |
| 20260503210058 | 57 | 169 | 2.0 | 3.0 | 0.00 | 0.00 | 0.00 | 44 | 1012.3 |
| 20260503203100 | 58 | 156 | 1.0 | 3.0 | 0.00 | 0.00 | 0.00 | 42 | 1012.6 |
| 20260503200059 | 60 | 166 | 1.0 | 3.0 | 0.00 | 0.00 | 0.00 | 40 | 1012.3 |
| 20260503193059 | 61 | 167 | 1.0 | 3.0 | 0.00 | 0.00 | 0.00 | 37 | 1012.4 |
| 20260503190059 | 63 | 171 | 1.0 | 3.0 | 0.00 | 0.00 | 0.00 | 32 | 1012.7 |
| 20260503183059 | 64 | 162 | 2.0 | 3.0 | 0.00 | 0.00 | 0.00 | 32 | 1012.8 |
| 20260503180059 | 67 | 161 | 1.0 | 4.0 | 0.00 | 0.00 | 0.00 | 28 | 1013.3 |
| 20260503173058 | 72 | 164 | 3.0 | 6.0 | 0.00 | 0.00 | 0.00 | 19 | 1013.5 |